Terminal Aerodrome Forecast
Issued by NWS

Home | Current Version | Previous Version | Text Only | Print | Product List | Glossary On
Versions: 1 2 3 4 5 6 7 8 9 10 11 12 13 14 15 16 17 18 19 20 21 22 23 24 25 26 27 28 29 30 31
000
FTUS41 KOKX 012331
TAFSWF
TAF
KSWF 012331Z 0200/0306 30005KT P6SM SKC
     FM020400 VRB03KT P6SM FEW040 SCT250
     FM021100 23003KT P6SM SCT040 BKN150
     FM021400 23008KT P6SM FEW040 SCT250
     FM021700 22012G18KT P6SM SCT040 BKN250
     FM022000 22016G26KT P6SM SCT040 BKN250
     FM030000 19012G18KT P6SM SCT050 BKN100 PROB30 0300/0306 -SHRA
      BKN050
      AMD NOT SKED=

USA.gov is the U.S. government's official web portal to all federal, state and local government web resources and services.